• In Deutschland
  • Länderverzeichnis
  • Für 7 Tage
  • Wassertemperatur
  • Satellitenkarten
  • Wetterkarte
  • Widgets
  • user-avatar
    Anmelden

    Stündliche Wetter Bangalol

    Heute, 20 Oktober, Samstag

    Zeit Temperatur Niederschläge Wind Luftdruck Luftfeuchtigkeit
    00:00 +23°C° 0 mm 1 m/S 699 mmHg 88%
    01:00 +23°C° 0 mm 1 m/S 699 mmHg 89%
    02:00 +23°C° 0 mm 1 m/S 698 mmHg 90%
    03:00 +22°C° 0 mm 1 m/S 698 mmHg 91%
    04:00 +22°C° 0 mm 1 m/S 699 mmHg 91%
    05:00 +22°C° 0 mm 1 m/S 699 mmHg 93%
    06:00 +23°C° 0.1 mm 1 m/S 699 mmHg 87%
    07:00 +24°C° 0.1 mm 2 m/S 700 mmHg 82%
    08:00 +26°C° 0.1 mm 2 m/S 700 mmHg 76%
    09:00 +27°C° 0 mm 2 m/S 700 mmHg 68%
    10:00 +28°C° 0 mm 2 m/S 700 mmHg 59%
    11:00 +29°C° 0 mm 2 m/S 701 mmHg 53%
    12:00 +29°C° 0.1 mm 2 m/S 700 mmHg 51%
    13:00 +30°C° 0.1 mm 3 m/S 699 mmHg 48%
    14:00 +30°C° 0.1 mm 3 m/S 699 mmHg 46%
    15:00 +29°C° 0 mm 3 m/S 699 mmHg 51%
    16:00 +28°C° 0 mm 2 m/S 699 mmHg 57%
    17:00 +27°C° 0 mm 2 m/S 699 mmHg 62%
    18:00 +25°C° 0 mm 2 m/S 699 mmHg 64%
    19:00 +24°C° 0 mm 2 m/S 699 mmHg 67%
    20:00 +23°C° 0 mm 2 m/S 700 mmHg 69%
    21:00 +23°C° 0 mm 2 m/S 700 mmHg 71%
    22:00 +21°C° 0 mm 2 m/S 700 mmHg 74%
    23:00 +21°C° 0 mm 2 m/S 700 mmHg 76%

    Morgen, 21 Oktober, Sonntag

    Zeit Temperatur Niederschläge Wind Luftdruck Luftfeuchtigkeit
    00:00 +21°C° 0 mm 2 m/S 700 mmHg 78%
    01:00 +22°C° 0 mm 1 m/S 699 mmHg 80%
    02:00 +21°C° 0 mm 1 m/S 699 mmHg 83%
    03:00 +21°C° 0 mm 1 m/S 699 mmHg 84%
    04:00 +21°C° 0 mm 1 m/S 699 mmHg 85%
    05:00 +20°C° 0 mm 1 m/S 699 mmHg 86%
    06:00 +22°C° 0 mm 1 m/S 700 mmHg 81%
    07:00 +23°C° 0 mm 1 m/S 700 mmHg 76%
    08:00 +25°C° 0 mm 2 m/S 701 mmHg 71%
    09:00 +26°C° 0 mm 2 m/S 701 mmHg 65%
    10:00 +27°C° 0 mm 2 m/S 701 mmHg 60%
    11:00 +29°C° 0 mm 3 m/S 701 mmHg 55%
    12:00 +29°C° 0 mm 3 m/S 700 mmHg 55%
    13:00 +29°C° 0 mm 3 m/S 699 mmHg 56%
    14:00 +30°C° 0 mm 3 m/S 699 mmHg 56%
    15:00 +29°C° 0.9 mm 3 m/S 699 mmHg 63%
    16:00 +28°C° 0.9 mm 2 m/S 699 mmHg 69%
    17:00 +27°C° 0.9 mm 2 m/S 699 mmHg 76%
    18:00 +26°C° 0.8 mm 2 m/S 699 mmHg 78%
    19:00 +25°C° 0.8 mm 2 m/S 700 mmHg 81%
    20:00 +24°C° 0.8 mm 2 m/S 700 mmHg 83%
    21:00 +23°C° 0 mm 2 m/S 700 mmHg 85%
    22:00 +23°C° 0 mm 2 m/S 700 mmHg 86%
    23:00 +23°C° 0 mm 2 m/S 700 mmHg 88%

    übermorgen, 22 Oktober, Montag

    Zeit Temperatur Niederschläge Wind Luftdruck Luftfeuchtigkeit
    00:00 +22°C° 0 mm 1 m/S 700 mmHg 89%
    01:00 +22°C° 0 mm 1 m/S 699 mmHg 90%
    02:00 +22°C° 0 mm 1 m/S 699 mmHg 91%
    03:00 +21°C° 0 mm 1 m/S 699 mmHg 91%
    04:00 +21°C° 0 mm 1 m/S 699 mmHg 91%
    05:00 +21°C° 0 mm 1 m/S 699 mmHg 90%
    06:00 +22°C° 0 mm 1 m/S 700 mmHg 85%
    07:00 +23°C° 0 mm 1 m/S 700 mmHg 79%
    08:00 +25°C° 0 mm 2 m/S 701 mmHg 73%
    09:00 +26°C° 0 mm 2 m/S 701 mmHg 66%
    10:00 +27°C° 0 mm 2 m/S 701 mmHg 58%
    11:00 +29°C° 0 mm 3 m/S 701 mmHg 51%
    12:00 +29°C° 0 mm 3 m/S 700 mmHg 51%
    13:00 +30°C° 0 mm 3 m/S 699 mmHg 50%
    14:00 +30°C° 0 mm 3 m/S 699 mmHg 49%
    15:00 +29°C° 0 mm 3 m/S 699 mmHg 55%
    16:00 +28°C° 0 mm 3 m/S 699 mmHg 61%
    17:00 +27°C° 0 mm 2 m/S 699 mmHg 66%
    18:00 +26°C° 0 mm 2 m/S 699 mmHg 69%
    19:00 +25°C° 0 mm 2 m/S 700 mmHg 71%
    20:00 +24°C° 0 mm 2 m/S 700 mmHg 74%
    21:00 +23°C° 0 mm 2 m/S 700 mmHg 76%
    22:00 +23°C° 0 mm 2 m/S 700 mmHg 77%
    23:00 +23°C° 0 mm 2 m/S 700 mmHg 79%

    23 Oktober, Dienstag

    Zeit Temperatur Niederschläge Wind Luftdruck Luftfeuchtigkeit
    00:00 +21°C° 0 mm 2 m/S 700 mmHg 78%
    01:00 +22°C° 0 mm 1 m/S 699 mmHg 78%
    02:00 +21°C° 0 mm 1 m/S 698 mmHg 78%
    03:00 +21°C° 0 mm 1 m/S 699 mmHg 77%
    04:00 +20°C° 0 mm 1 m/S 699 mmHg 75%
    05:00 +20°C° 0 mm 1 m/S 699 mmHg 74%
    06:00 +22°C° 0 mm 1 m/S 700 mmHg 70%
    07:00 +23°C° 0 mm 2 m/S 700 mmHg 66%
    08:00 +25°C° 0 mm 2 m/S 701 mmHg 61%
    09:00 +26°C° 0 mm 3 m/S 701 mmHg 57%
    10:00 +28°C° 0 mm 3 m/S 701 mmHg 52%
    11:00 +29°C° 0 mm 4 m/S 701 mmHg 47%
    12:00 +30°C° 0 mm 4 m/S 700 mmHg 47%
    13:00 +30°C° 0 mm 4 m/S 699 mmHg 47%
    14:00 +30°C° 0 mm 4 m/S 699 mmHg 47%
    15:00 +29°C° 0 mm 3 m/S 699 mmHg 53%
    16:00 +28°C° 0 mm 3 m/S 699 mmHg 59%
    17:00 +27°C° 0 mm 2 m/S 699 mmHg 65%
    18:00 +26°C° 0 mm 2 m/S 699 mmHg 68%
    19:00 +25°C° 0 mm 2 m/S 700 mmHg 70%
    20:00 +24°C° 0 mm 2 m/S 700 mmHg 73%
    21:00 +23°C° 0 mm 2 m/S 700 mmHg 74%
    22:00 +23°C° 0 mm 2 m/S 700 mmHg 76%
    23:00 +21°C° 0 mm 2 m/S 700 mmHg 77%

    24 Oktober, Mittwoch

    Zeit Temperatur Niederschläge Wind Luftdruck Luftfeuchtigkeit
    00:00 +21°C° 0 mm 2 m/S 700 mmHg 76%
    01:00 +20°C° 0 mm 2 m/S 699 mmHg 75%
    02:00 +21°C° 0 mm 1 m/S 698 mmHg 74%
    03:00 +21°C° 0 mm 1 m/S 698 mmHg 71%
    04:00 +20°C° 0 mm 1 m/S 699 mmHg 69%
    05:00 +20°C° 0 mm 1 m/S 699 mmHg 66%
    06:00 +21°C° 0 mm 2 m/S 699 mmHg 63%
    07:00 +23°C° 0 mm 2 m/S 700 mmHg 60%
    08:00 +25°C° 0 mm 2 m/S 701 mmHg 57%
    09:00 +26°C° 0 mm 3 m/S 701 mmHg 54%
    10:00 +28°C° 0 mm 3 m/S 701 mmHg 52%
    11:00 +29°C° 0 mm 4 m/S 701 mmHg 50%
    12:00 +30°C° 0 mm 4 m/S 700 mmHg 49%
    13:00 +30°C° 0 mm 4 m/S 699 mmHg 49%
    14:00 +30°C° 0 mm 4 m/S 699 mmHg 49%
    15:00 +29°C° 0 mm 3 m/S 699 mmHg 55%
    16:00 +28°C° 0 mm 3 m/S 699 mmHg 61%
    17:00 +27°C° 0 mm 3 m/S 699 mmHg 66%
    18:00 +26°C° 0 mm 2 m/S 699 mmHg 69%
    19:00 +25°C° 0 mm 2 m/S 700 mmHg 72%
    20:00 +24°C° 0 mm 2 m/S 700 mmHg 75%
    21:00 +23°C° 0 mm 2 m/S 700 mmHg 78%
    22:00 +23°C° 0 mm 2 m/S 700 mmHg 80%
    23:00 +21°C° 0 mm 2 m/S 700 mmHg 83%

    25 Oktober, Donnerstag

    Zeit Temperatur Niederschläge Wind Luftdruck Luftfeuchtigkeit
    00:00 +21°C° 0 mm 2 m/S 699 mmHg 84%
    01:00 +20°C° 0 mm 2 m/S 699 mmHg 84%
    02:00 +20°C° 0 mm 2 m/S 698 mmHg 85%
    03:00 +20°C° 0 mm 2 m/S 699 mmHg 85%
    04:00 +19°C° 0 mm 2 m/S 699 mmHg 84%
    05:00 +19°C° 0 mm 2 m/S 699 mmHg 83%
    06:00 +21°C° 0 mm 2 m/S 700 mmHg 78%
    07:00 +22°C° 0 mm 3 m/S 701 mmHg 73%
    08:00 +25°C° 0 mm 3 m/S 701 mmHg 68%
    09:00 +26°C° 0 mm 3 m/S 701 mmHg 64%
    10:00 +27°C° 0 mm 4 m/S 701 mmHg 59%
    11:00 +29°C° 0 mm 4 m/S 701 mmHg 55%
    12:00 +29°C° 0 mm 4 m/S 700 mmHg 55%
    13:00 +29°C° 0 mm 4 m/S 700 mmHg 54%
    14:00 +30°C° 0 mm 4 m/S 699 mmHg 54%
    15:00 +29°C° 0.1 mm 4 m/S 699 mmHg 60%
    16:00 +28°C° 0.1 mm 3 m/S 699 mmHg 66%
    17:00 +26°C° 0.1 mm 3 m/S 699 mmHg 72%
    18:00 +25°C° 0 mm 3 m/S 700 mmHg 75%
    19:00 +24°C° 0 mm 3 m/S 700 mmHg 78%
    20:00 +22°C° 0 mm 3 m/S 701 mmHg 81%
    21:00 +22°C° 0 mm 3 m/S 701 mmHg 80%
    22:00 +21°C° 0 mm 3 m/S 701 mmHg 79%
    23:00 +20°C° 0 mm 3 m/S 701 mmHg 79%
    Mehr zeigen